{"data":{"norad_id":67959,"epoch":"2026-09-18T04:31:33.710304Z","epoch_age_seconds":262916,"freshness":"STALE","line1":"1 67959U 26037AD  26261.18858461  .00038166  00000+0  13875-2 0  9991","line2":"2 67959  43.0004 183.3550 0001327 264.7910  95.2790 15.27622594 32781","mean_motion":15.27622594,"eccentricity":0.0001327,"inclination_deg":43.0004,"raan_deg":183.355,"arg_perigee_deg":264.791,"mean_anomaly_deg":95.279,"bstar":0.0013875,"rev_number":3278,"period_min":94.264120317142,"perigee_km":482.0110947735,"apogee_km":483.83201971459,"semimajor_km":6861.058557244,"source":"CELESTRAK","updated_at":"2026-09-20T09:00:43.712760Z"}}